{"data":{"norad_id":59252,"intl_designator":"2024-049X","name":"STARLINK-31393","alt_names":[],"object_type":"PAYLOAD","status":"ACTIVE","operator":null,"country":"US","launch_date":"2024-03-16","launch_site_code":"AFETR","launch_vehicle":null,"mission":null,"orbit_class":"UNKNOWN","rcs_meters":null,"size_class":null,"mass_kg":null,"dimensions":null,"purposes":["comms"],"wikipedia_slug":null,"has_3d_model":false,"image_url":null,"decayed_at":null,"tle_current":{"epoch":"2026-05-25T01:22:22.535328Z","epoch_age_seconds":70183,"freshness":"FRESH","line1":"1 59252U 24049X   26145.05720527  .00001271  00000+0  55713-4 0  9993","line2":"2 59252  43.0042  57.6944 0001480 273.8850  86.1832 15.27584346124256","mean_motion":15.27584346,"eccentricity":0.000148,"inclination_deg":43.0042,"raan_deg":57.6944,"arg_perigee_deg":273.885,"mean_anomaly_deg":86.1832,"bstar":5.5713e-5,"rev_number":12425,"period_min":94.266480523361,"perigee_km":482.02062896682,"apogee_km":484.05153619926,"semimajor_km":6861.173082583,"source":"CELESTRAK","updated_at":"2026-05-25T13:38:18.873466Z"}}}